This demonstration page uses our WeatherBlox Daily Observations layout. Learn more.

Left ArrowRight Arrow

Hourly Observations for December 24, 2015

Temp ( °F °C ) Dew Point ( °F °C ) Humidity (%) Winds ( mph kmh ) Pressure ( in mb ) Visibility ( mi km ) Precip ( " mm )
12:53 am 00:53 Mostly Cloudy 46 7.8 34 1.1 63 63 SSW 14 22 29.82 1010 10 16 0.00 0.00
1:53 am 01:53 Cloudy with Light Rain 45 7.2 36 2.2 71 71 W 8 13 29.83 1010 10 16 0.00 0.03
2:53 am 02:53 Cloudy with Light Rain 43 6.1 37 2.8 80 80 S 10 17 29.83 1010 10 16 0.03 0.76
3:53 am 03:53 Cloudy 43 6.1 37 2.8 80 80 SSW 8 13 29.80 1009 10 16 0.00 0.03
4:53 am 04:53 Cloudy 43 6.1 37 2.8 80 80 SSW 10 17 29.79 1009 10 16 0.00 0.03
5:53 am 05:53 Mostly Cloudy 42 5.6 37 2.8 82 82 W 6 9 29.79 1009 10 16 0.00 0.00
6:29 am 06:29 Cloudy 41 5 37 2.8 86 86 WNW 5 7 29.83 1010 10 16 0.00 0.00
6:51 am 06:51 Cloudy 41 5 37 3 87 87 W 5 7 29.83 1010 10 16 0.00 0.00
6:53 am 06:53 Cloudy 41 5 37 2.8 86 86 W 3 6 29.80 1009 10 16 0.00 0.00
7:45 am 07:45 Cloudy 42 5.6 37 2.8 82 82 SSW 7 11 29.83 1010 10 16 0.00 0.00
7:53 am 07:53 Cloudy 42 5.6 37 2.8 82 82 SW 8 13 29.79 1009 10 16 0.00 0.00
8:15 am 08:15 Cloudy 43 6.1 38 3.3 82 82 SSW 7 11 29.83 1010 10 16 0.00 0.00
8:28 am 08:28 Mostly Cloudy 43 6 37 3 81 81 SSW 13 20 29.80 1009 10 16 0.00 0.00
8:53 am 08:53 Partly Cloudy 43 6.1 37 2.8 80 80 S 12 19 29.80 1009 10 16 0.00 0.00
9:53 am 09:53 Mostly Sunny 44 6.7 38 3.3 79 79 S 10 17 29.82 1010 10 16 0.00 0.00
10:53 am 10:53 Sunny 45 7.2 38 3.3 77 77 SSW 6 9 29.83 1010 10 16 0.00 0.00
11:53 am 11:53 Mostly Cloudy 47 8.3 35 1.7 63 63 Calm 29.82 1010 10 16 0.00 0.00
12:53 pm 12:53 Mostly Sunny 48 8.9 35 1.7 61 61 NNE 3 6 29.81 1009 10 16 0.00 0.00
1:53 pm 13:53 Sunny 51 10.6 36 2.2 56 56 VRB 3 6 29.80 1009 10 16 0.00 0.00
2:53 pm 14:53 Sunny 49 9.4 34 1.1 56 56 WNW 5 7 29.82 1010 10 16 0.00 0.00
3:53 pm 15:53 Mostly Sunny 49 9.4 33 0.6 55 55 WSW 3 6 29.84 1010 10 16 0.00 0.00
4:53 pm 16:53 Mostly Clear 45 7.2 33 0.6 63 63 W 3 6 29.86 1011 10 16 0.00 0.00
5:53 pm 17:53 Clear 43 6.1 33 0.6 68 68 Calm 29.88 1012 10 16 0.00 0.00
6:53 pm 18:53 Clear 40 4.4 32 0 73 73 Calm 29.91 1013 10 16 0.00 0.00
7:53 pm 19:53 Clear 36 2.2 31 -0.6 82 82 Calm 29.93 1013 10 16 0.00 0.00
8:53 pm 20:53 Clear 38 3.3 31 -0.6 76 76 Calm 29.93 1014 10 16 0.00 0.00
9:53 pm 21:53 Clear 34 1.1 30 -1.1 85 85 Calm 29.96 1015 10 16 0.00 0.00
10:53 pm 22:53 Mostly Cloudy 35 1.7 31 -0.6 85 85 SW 5 7 29.99 1016 10 16 0.00 0.00
11:53 pm 23:53 Cloudy 36 2.2 31 -0.6 82 82 Calm 29.99 1016 10 16 0.00 0.00

Powered by AerisWeather